Regional & State Weather Roundups


847 
ASUS41 KLWX 180111
RWRLWX
REGIONAL WEATHER ROUNDUP
NATIONAL WEATHER SERVICE BALTIMORE MD/WASHINGTON DC
900 PM EDT TUE SEP 17 2019
Note: "FAIR" indicates few or no clouds below 12,000 feet
with no significant weather and/or obstructions to visibility.
 TC=TEMPERATURE CELSIUS
 * =Non NWS site. Station does not report precipitation (e.g. rain,
    snow, etc.), thunder, or fog.
DCZ001-MDZ009-015-VAZ040>042-051-053>054-180200-
WASHINGTON METRO
  
CITY           SKY/WX    TMP DP  RH WIND       PRES   REMARKS
WASHINGTON NAT FAIR      75  57  53 CALM      30.11R                  
DULLES         FAIR      70  57  63 E6        30.11R                  
ANDREWS AFB    FAIR      65  58  77 CALM      30.10R                  
FT BELVOIR     MOCLDY    69  60  75 CALM      30.11R                  
QUANTICO       CLOUDY    74  61  63 CALM      30.11R                  
COLLEGE PARK*  FAIR      65  56  72 CALM      30.11R                  
LEESBURG*      FAIR      72  61  68 CALM      30.13R                  
MANASSAS*      CLOUDY    71  64  78 CALM      30.12R                  
GAITHERSBURG*  FAIR      66  56  70 CALM      30.14R                  
$$
MDZ006>007-011-014-180200-
BALTIMORE METRO
  
CITY           SKY/WX    TMP DP  RH WIND       PRES   REMARKS
BWI AIRPORT    FAIR      72  55  55 CALM      30.11R                  
MD SCIENCE CTR   N/A     75  53  46 MISG      30.12R                  
ANNAPOLIS      FAIR      76  61  59 SE13      30.11R                  
FORT MEADE*    FAIR      61  59  94 CALM      30.14R                  
$$
MDZ012-015-019>023-180200-
MARYLAND EASTERN SHORE
  
CITY           SKY/WX    TMP DP  RH WIND       PRES   REMARKS
OCEAN CITY     FAIR      68  52  56 E8        30.11S                  
SALISBURY      FAIR      60  53  77 CALM      30.11S                  
BAY BRIDGE AP* FAIR      70  55  60 SE7       30.12R                  
CAMBRIDGE*     CLEAR     66  54  63 E5        30.12R                  
EASTON*        CLEAR     66  55  68 E5        30.15R                  
$$
MDZ017>025-180200-
SOUTHERN MARYLAND
  
CITY           SKY/WX    TMP DP  RH WIND       PRES   REMARKS
PATUXENT RIVER FAIR      71  58  63 SE9       30.10R                  
ST INIGOES     FAIR      70  58  65 E5        30.09R                  
LEONARDTOWN*   FAIR      68  59  73 E3        30.12S                  
$$
MDZ003>005-180200-
NORTH CENTRAL MARYLAND
  
CITY           SKY/WX    TMP DP  RH WIND       PRES   REMARKS
FREDERICK*     CLEAR     66  57  72 CALM      30.13R                  
HAGERSTOWN APT FAIR      70  46  42 NE8       30.13R                  
$$
MDZ501>502-180200-
WESTERN MARYLAND
  
CITY           SKY/WX    TMP DP  RH WIND       PRES   REMARKS
OAKLAND*       FAIR      61  52  72 E9        30.19S                  
CUMBERLAND*    FAIR      67  53  60 SW7       30.17R                  
$$
VAZ025>031-180200-
SHENANDOAH VALLEY
  
CITY           SKY/WX    TMP DP  RH WIND       PRES   REMARKS
WINCHESTER*    FAIR      63  57  82 CALM      30.12R                  
FRONT ROYAL*   FAIR      64  63  94 CALM      30.11R                  
LURAY*         FAIR      66  63  88 CALM      30.13R                  
NEW MARKET*    FAIR      64  62  95 CALM      30.12S                  
STAUNTON*      CLOUDY    67  64  89 CALM      30.16R                  
WAYNESBORO*    CLOUDY    68  63  85 SE3       30.14S                  
$$
WVZ021-048>050-054>055-180200-
EASTERN WEST VIRGINIA PANHANDLE
  
CITY           SKY/WX    TMP DP  RH WIND       PRES   REMARKS
MARTINSBURG    FAIR      67  55  65 CALM      30.12R                  
PETERSBURG*    FAIR      63  61  95 CALM      30.13R                  
$$
VAZ036>039-050-180200-
CENTRAL FOOTHILLS
  
CITY           SKY/WX    TMP DP  RH WIND       PRES   REMARKS
CHARLOTTESVILL MOCLDY    70  64  81 CALM      30.12R                  
CULPEPER*      MOCLDY    66  64  94 CALM      30.12S                  
ORANGE*        MOCLDY    64  63  94 CALM      30.12R                  
GORDONSVILLE*  MOCLDY    68  68 100 CALM      30.11R                  
WARRENTON*     MOCLDY    62  58  87 CALM      30.11S                  
$$
VAZ055>057-180200-
NORTH AND CENTRAL PIEDMONT
  
CITY           SKY/WX    TMP DP  RH WIND       PRES   REMARKS
FREDERICKSBRG* CLOUDY    70  66  88 CALM      30.10R                  
STAFFORD*      FAIR      65  65 100 CALM      30.15R                  
$$
NCZ024-NYZ072-PAZ021-071-VAZ022-071-180200-
OTHER REGIONAL OBSERVATIONS
  
CITY           SKY/WX    TMP DP  RH WIND       PRES   REMARKS
NEW YORK CITY  FAIR      67  47  48 CALM      30.16R                  
PHILADELPHIA   FAIR      69  48  47 SE8       30.13R                  
PITTSBURGH     FAIR      69  50  50 NE7       30.13S                  
ROANOKE        CLOUDY    72  65  78 E10       30.14R                  
RICHMOND       CLOUDY    72  63  73 E7        30.09R                  
RALEIGH        CLOUDY    71  68  90 NE7       30.06R                  
$$
ANZ530>537-180200-
MARINE OBSERVATIONS
  
STATION/POSITION TIME  TEMP    WIND        PRES
                       AIR SEA DIR/SP/G
                 (UTC) (F)     (DEG/KT/KT) (MB)
THOMAS PT LIGHT  0100   72 76   90/ 13/ 14 1020.4R
BALT KEY BRIDGE  0024   75      60/  5/  6 1019.3
COVE POINT       0024   72     130/ 13/ 17 1019.9
LEWISETTA        0030          110/ 12/ 14   N/A
SOLOMONS ISLAND  0024   73 78  110/ 11/ 12 1018.9
PINEY POINT      0030          130/ 12/ 13   N/A
$$